[[{"header":{"parameterUnit":"m.s-1","parameterCategory":1,"la1":30.2991,"la2":30.254,"lo1":-89.0895,"lo2":-89.0444,"dy":0.0017,"dx":0.0017,"nx":28,"ny":28,"refTime":"2024-05-24T09:00:00:Z","depth":0,"parameterNumber":2,"parameterNumberName":"U-component_of_WINDS"},"data":[0,0,0,0,0,0,0,0,0,0,0,0,0,0,0,0,0,0,0,0,0,0,0,0,0,0,0,0,0,0,0,0,0,0,0,0,0,0,0,0,0,0,0,0,0,0,0,0,0,0,0,0,0,0,0,0,0,0,0.0704,0.0704,0,0.0687,0.0687,0.0687,0.0648,0.0647,0.0646,0.0645,0.0629,0.0629,0.063,0,0,0,0,0,0,0,0,0,0,0,0,0,0.07,0.0701,0.0704,0.0703,0.0703,0.0687,0.0687,0.0687,0.0648,0.0647,0.0646,0.0645,0.0629,0.0629,0.063,0,0,0,0,0,0,0,0,0,0,0,0,0,0.0695,0.0701,0.0704,0.0682,0.068,0.0687,0.0687,0.0687,0.0648,0.0647,0.0646,0.0644,0.0629,0.0629,0.063,0.0658,0,0,0.0631,0.0631,0,0,0,0,0,0,0,0,0.0695,0.0695,0.0685,0.0683,0.0681,0.0668,0.068,0.0677,0.0648,0.066,0.0645,0.0644,0.0643,0.0642,0.0642,0.0657,0.0656,0.0631,0.0632,0.0632,0.0632,0,0,0,0,0,0,0,0.0696,0.0695,0.0697,0.0685,0.0683,0.0673,0.0671,0.0679,0.0659,0.0659,0.0656,0.0655,0.0642,0.0642,0.0641,0.0656,0.0631,0.0632,0.0632,0.0632,0.0692,0.0693,0,0,0,0,0,0,0.0699,0.0696,0.0698,0.0697,0.0685,0.0674,0.0671,0.0674,0.0659,0.0655,0.0656,0.0653,0.0641,0.0641,0.0641,0.0672,0.0632,0.0632,0.0633,0.0691,0.0692,0.0694,0,0,0,0,0,0,0.0699,0.07,0.0698,0.0696,0.0695,0.0675,0.0678,0.0674,0.0674,0.0656,0.0652,0.066,0.064,0.064,0.0653,0.0671,0.0633,0.0633,0.0689,0.0691,0.0693,0.0735,0,0,0,0,0,0,0.0699,0.07,0.0711,0.0696,0.0695,0.0712,0.0679,0.0675,0.0675,0.0671,0.0659,0.0655,0.0639,0.0653,0.0654,0.0671,0.0633,0.0687,0.069,0.0692,0.0732,0.0739,0.0744,0,0,0,0,0,0.0699,0.0723,0.0711,0.0712,0.0708,0.0713,0.0712,0.0693,0.0676,0.0687,0.0675,0.0656,0.0669,0.0655,0.0655,0.0673,0.0686,0.0689,0.0692,0.073,0.0737,0.0744,0,0,0,0,0,0,0.0741,0.0721,0.0708,0.0728,0.0722,0.0706,0.0719,0.0702,0.0701,0.0698,0.0674,0.0672,0.0689,0.0682,0.0667,0.0699,0.0674,0.0677,0.0703,0.071,0.0715,0.0717,0.0634,0,0,0,0,0,0.0752,0.0758,0.0741,0.076,0.0758,0.0739,0.074,0.0726,0.072,0.0717,0.0707,0.0701,0.0704,0.0706,0.0708,0.0731,0.0727,0.0743,0.0749,0.0753,0.0757,0.0768,0.0775,0.0703,0.0703,0.0703,0,0,0.0776,0.0766,0.0771,0.0768,0.0762,0.0769,0.0737,0.0746,0.075,0.0718,0.0731,0.0723,0.0715,0.0733,0.0741,0.0728,0.0776,0.0757,0.0761,0.0762,0.0772,0.0779,0.0785,0.0705,0.0705,0.0704,0,0,0.0823,0.0816,0.0831,0.0826,0.0817,0.0804,0.0808,0.0794,0.0787,0.0799,0.0775,0.078,0.0785,0.0781,0.0779,0.0823,0.0805,0.0824,0.0854,0.0866,0.0871,0.0876,0.0892,0.0898,0.0827,0.0827,0.0827,0,0.0854,0.0863,0.0841,0.0851,0.085,0.0821,0.0836,0.0832,0.0824,0.0824,0.081,0.0816,0.0808,0.0825,0.0836,0.0835,0.0839,0.0826,0.0872,0.0877,0.0881,0.0896,0.0902,0.083,0.0829,0.0829,0.0829,0,0.0901,0.0908,0.0921,0.0914,0.0914,0.0927,0.0907,0.091,0.0895,0.0884,0.0896,0.0886,0.0885,0.0887,0.0873,0.0902,0.0894,0.0877,0.0852,0.0891,0.0905,0.091,0.0833,0.0832,0.0831,0.0831,0,0,0.0975,0.0955,0.0961,0.0957,0.0944,0.0949,0.096,0.0958,0.0961,0.0957,0.0965,0.097,0.0953,0.0951,0.0936,0.0946,0.0981,0.0927,0.0926,0.0938,0.1013,0.1027,0.1034,0.0969,0.097,0.0971,0.1013,0,0.1019,0.1037,0.1017,0.1039,0.1044,0.1016,0.1025,0.1019,0.1008,0.1011,0.0999,0.1003,0.098,0.0979,0.0987,0.0975,0.0996,0.0972,0.0977,0.0977,0.0981,0.1041,0.1056,0.1097,0.1019,0.1019,0.102,0,0.1074,0.1071,0.1094,0.1079,0.1081,0.109,0.1086,0.1089,0.1081,0.1072,0.107,0.1052,0.1061,0.1036,0.1049,0.1032,0.1033,0.1027,0.1028,0.1029,0.1002,0.1044,0.1109,0.1116,0.1028,0.1028,0.1027,0,0.1126,0.1128,0.1141,0.1139,0.1123,0.1129,0.1123,0.1113,0.1113,0.111,0.111,0.1109,0.1108,0.1107,0.1088,0.1072,0.1103,0.1077,0.1097,0.1097,0.1105,0.1105,0.1173,0.1105,0.1105,0.1105,0.1104,0,0.1178,0.1193,0.1164,0.1173,0.1188,0.1165,0.1181,0.1172,0.1163,0.1169,0.1144,0.115,0.1125,0.1129,0.1114,0.1127,0.1127,0.112,0.1116,0.1123,0.1124,0.1124,0.1121,0.1106,0.1106,0.1106,0.1105,0,0.1239,0.1221,0.1234,0.1217,0.1213,0.1225,0.121,0.1217,0.1204,0.1212,0.1213,0.1193,0.1195,0.1176,0.1175,0.1166,0.1186,0.1176,0.1189,0.1186,0.1207,0.1206,0.1278,0.1286,0.1212,0.1213,0.1213,0,0.1274,0.1284,0.1268,0.127,0.1265,0.1269,0.1269,0.1246,0.1247,0.1238,0.1246,0.1246,0.1246,0.1251,0.1237,0.1236,0.1227,0.1252,0.1226,0.1233,0.1228,0.1228,0.1229,0.1258,0.1259,0.1259,0.126,0,0.1337,0.1328,0.1328,0.1326,0.1326,0.1323,0.1319,0.1322,0.1297,0.1299,0.1302,0.1301,0.13,0.1301,0.1297,0.129,0.1271,0.1268,0.1272,0.128,0.1287,0.1284,0.1204,0.1267,0.1266,0.1265,0.1265,0.1265,0.1387,0.1395,0.1384,0.1386,0.138,0.1376,0.1382,0.1369,0.1371,0.1368,0.1354,0.1359,0.135,0.1343,0.1337,0.1341,0.1329,0.1335,0.1337,0.1339,0.1343,0.1285,0.134,0.134,0.1339,0.1339,0.1339,0,0.1449,0.1441,0.1443,0.1437,0.1438,0.1419,0.1413,0.1415,0.142,0.1413,0.1412,0.1415,0.1415,0.14,0.1399,0.1405,0.1396,0.1405,0.1405,0.1404,0.1354,0.135,0.1412,0.1412,0.1412,0.1412,0.1412,0.1412,0.1482,0.1494,0.1483,0.1493,0.1484,0.1488,0.1487,0.1483,0.1477,0.1481,0.1481,0.1471,0.1461,0.1459,0.1458,0.1454,0.1455,0.1467,0.146,0.1414,0.1407,0.14,0.1397,0.1467,0.1467,0.1509,0.151,0.151]},{"header":{"parameterUnit":"m.s-1","parameterCategory":1,"la1":30.2991,"la2":30.254,"lo1":-89.0895,"lo2":-89.0444,"dy":0.0017,"dx":0.0017,"nx":28,"ny":28,"refTime":"2024-05-24T09:00:00:Z","depth":0,"parameterNumber":3,"parameterNumberName":"V-component_of_WINDS"},"data":[0,0,0,0,0,0,0,0,0,0,0,0,0,0,0,0,0,0,0,0,0,0,0,0,0,0,0,0,0,0,0,0,0,0,0,0,0,0,0,0,0,0,0,0,0,0,0,0,0,0,0,0,0,0,0,0,0,0,4.5204,4.5203,0,4.5178,4.5178,4.5178,4.514,4.514,4.5139,4.5138,4.5111,4.5111,4.5111,0,0,0,0,0,0,0,0,0,0,0,0,0,4.522,4.522,4.5204,4.5203,4.5203,4.5178,4.5178,4.5177,4.514,4.5139,4.5139,4.5138,4.5111,4.5111,4.5111,0,0,0,0,0,0,0,0,0,0,0,0,0,4.5205,4.522,4.5204,4.5182,4.5179,4.5178,4.5178,4.5177,4.514,4.5139,4.5138,4.5138,4.5111,4.5111,4.5111,4.5129,0,0,4.511,4.511,0,0,0,0,0,0,0,0,4.5206,4.5205,4.5185,4.5183,4.5181,4.5161,4.5173,4.5161,4.5141,4.5155,4.5138,4.5137,4.5128,4.5127,4.5124,4.5128,4.5127,4.511,4.511,4.511,4.511,0,0,0,0,0,0,0,4.5207,4.5206,4.5194,4.5185,4.5182,4.5173,4.517,4.5171,4.5148,4.5154,4.5151,4.5149,4.5127,4.5124,4.5123,4.5126,4.511,4.511,4.511,4.511,4.5144,4.5145,0,0,0,0,0,0,4.5212,4.5207,4.5194,4.5193,4.5191,4.5173,4.517,4.5168,4.5147,4.5143,4.5149,4.5147,4.5125,4.5123,4.5122,4.5142,4.511,4.511,4.511,4.5143,4.5144,4.5145,0,0,0,0,0,0,4.5212,4.5211,4.5195,4.5199,4.5196,4.5174,4.5173,4.5168,4.5166,4.5144,4.514,4.5151,4.5124,4.5122,4.5128,4.5141,4.511,4.511,4.5142,4.5143,4.5145,4.5183,0,0,0,0,0,0,4.5213,4.5211,4.5218,4.52,4.5196,4.5202,4.5174,4.5169,4.5166,4.5162,4.5144,4.5141,4.5123,4.5128,4.5128,4.514,4.5109,4.514,4.5142,4.5144,4.518,4.5185,4.519,0,0,0,0,0,4.5214,4.523,4.5219,4.5217,4.5204,4.5203,4.5201,4.5181,4.5167,4.5174,4.516,4.5141,4.514,4.5129,4.5128,4.5141,4.5139,4.5142,4.5144,4.5178,4.5184,4.519,0,0,0,0,0,0,4.525,4.5227,4.5214,4.5225,4.5216,4.5196,4.5204,4.5188,4.5183,4.518,4.5155,4.5151,4.516,4.5151,4.5139,4.5157,4.5137,4.5139,4.5163,4.5169,4.5174,4.5176,4.5109,0,0,0,0,0,4.526,4.526,4.524,4.5251,4.5247,4.5227,4.5225,4.5211,4.52,4.5196,4.5183,4.5173,4.517,4.5169,4.5165,4.5179,4.5174,4.5187,4.5192,4.5196,4.5198,4.5205,4.521,4.5153,4.5153,4.5153,0,0,4.5279,4.5266,4.5268,4.5258,4.5249,4.5251,4.5224,4.5226,4.5226,4.5196,4.5201,4.5191,4.5178,4.5188,4.5191,4.5181,4.5213,4.5199,4.5202,4.5202,4.5208,4.5213,4.5218,4.5154,4.5154,4.5154,0,0,4.5314,4.5305,4.5313,4.5306,4.5293,4.5279,4.5281,4.5264,4.5256,4.5261,4.5238,4.5238,4.5234,4.5226,4.5222,4.5255,4.5238,4.5255,4.528,4.5287,4.5291,4.5295,4.5307,4.5312,4.5257,4.5257,4.5257,0,4.534,4.5341,4.532,4.5324,4.532,4.5293,4.5302,4.5295,4.5282,4.528,4.5268,4.5263,4.5252,4.526,4.5268,4.5266,4.5267,4.5257,4.5292,4.5296,4.5299,4.531,4.5315,4.5259,4.5259,4.5259,4.5259,0,4.5373,4.5374,4.5382,4.5371,4.5368,4.5374,4.5354,4.5354,4.534,4.5327,4.5332,4.5319,4.5312,4.5313,4.5299,4.5319,4.5312,4.5297,4.5275,4.5307,4.5317,4.5321,4.5262,4.5261,4.5261,4.526,0,0,4.543,4.5408,4.5411,4.5406,4.539,4.539,4.5395,4.5389,4.539,4.5382,4.5385,4.5383,4.5368,4.5363,4.5348,4.5354,4.5382,4.5338,4.5337,4.5347,4.5403,4.5415,4.542,4.5371,4.5371,4.5372,4.5404,0,4.5463,4.547,4.5452,4.5464,4.5465,4.544,4.5444,4.5435,4.5424,4.5423,4.541,4.5408,4.5389,4.5386,4.5391,4.5378,4.5393,4.5375,4.5373,4.5374,4.5377,4.5425,4.5438,4.5469,4.5408,4.5408,4.5409,0,4.5502,4.5496,4.5509,4.5493,4.5492,4.5497,4.549,4.5489,4.5479,4.547,4.5465,4.5447,4.5451,4.5431,4.5436,4.5424,4.5422,4.5416,4.5416,4.5415,4.5393,4.5426,4.5478,4.5483,4.5415,4.5414,4.5414,0,4.5543,4.5538,4.5545,4.5541,4.5523,4.5527,4.5519,4.5508,4.5505,4.5499,4.5498,4.5492,4.5489,4.5485,4.5467,4.5454,4.5474,4.5452,4.5466,4.5467,4.5472,4.5472,4.5525,4.5471,4.5471,4.547,4.547,0,4.5581,4.559,4.5564,4.5568,4.5577,4.5555,4.5565,4.5555,4.5545,4.5546,4.5524,4.5526,4.5502,4.5501,4.5487,4.5493,4.5492,4.5485,4.5481,4.5487,4.5488,4.5485,4.5483,4.5472,4.5471,4.5471,4.5471,0,4.5629,4.5611,4.5617,4.56,4.5595,4.5603,4.5587,4.5591,4.5578,4.5581,4.558,4.556,4.5558,4.554,4.5534,4.5524,4.5536,4.5528,4.554,4.5537,4.5553,4.5552,4.5606,4.5612,4.5554,4.5555,4.5555,0,4.5654,4.566,4.5644,4.5643,4.5637,4.5637,4.5635,4.5614,4.5612,4.5601,4.5605,4.5602,4.5598,4.5596,4.5581,4.5576,4.5568,4.5587,4.5567,4.5573,4.5568,4.5568,4.5569,4.5592,4.5593,4.5593,4.5594,0,4.5702,4.5693,4.5691,4.5686,4.5684,4.5678,4.5672,4.5673,4.565,4.5649,4.5647,4.5645,4.5639,4.5636,4.5628,4.562,4.5603,4.56,4.5603,4.561,4.5616,4.5613,4.5551,4.5599,4.5598,4.5598,4.5598,4.5598,4.5739,4.5743,4.5733,4.5731,4.5724,4.5718,4.572,4.5708,4.5706,4.57,4.5688,4.5688,4.5677,4.5666,4.5659,4.5659,4.5649,4.5653,4.5655,4.5656,4.5659,4.5616,4.5658,4.5657,4.5657,4.5657,4.5657,0,4.5786,4.5777,4.5776,4.5768,4.5766,4.5751,4.5743,4.5743,4.5743,4.5735,4.5732,4.573,4.5727,4.5711,4.5707,4.5709,4.5701,4.5709,4.5708,4.5707,4.5669,4.5666,4.5715,4.5715,4.5715,4.5715,4.5715,4.5715,4.581,4.5817,4.5807,4.581,4.5801,4.5801,4.5798,4.5793,4.5786,4.5785,4.5783,4.5773,4.5762,4.5756,4.5753,4.5748,4.5747,4.5757,4.5751,4.5715,4.5709,4.5704,4.5702,4.5757,4.5757,4.5789,4.5789,4.5789]}]]